Showing default

COSMOS 2270, 23001

Orbit data source: Space-Track

COSMOS 2270, 23001 is a payload satellite owned by VKS (CIS) in LEO that was launched on Sat, 12 Feb 1994 UTC via a TSIKLON-3 launch vehicle from the Plesetsk Missile And Space Complex (PKMTR). Payloads include a variety of satellites, spacecraft, and rockets equipped with specific instruments for various scientific and technological missions. These include communications satellites like Starlink; space stations such as the ISS; scientific satellites like the Hubble; Earth observation satellites from companies like Planet Labs, Umbra, and HawkEye 360; GPS; miniature CubeSats for education and research; and military/defense satellites.

Loading next visibility...
COSMOS 2270 details
Identifier
23001, 1994-011C
Orbit
LEO
Last TLE update1 day ago
Origin
Flag of CISVKS (CIS)
ManufacturerNPO PM
MissionDefense Communications
Bus & MotorSTRELA-3, Unknown motor
Mass225 kg wet, 225 kg dry
Launch date (UTC)
1994-02-12 (31 years ago)
Launch vehicle
TSIKLON-3
Launch site
Plesetsk Missile And Space Complex (PKMTR)
Object type
Payload
Rocket body
Debris
Shape & HBRCyl, 1.6 m
Radar Cross Section1.257 m², Large (>1 m²)

Expand to show TLE details & history

TLE from 1 day ago
0 COSMOS 2270
1 23001U 94011C   25035.13480377  .00000026  00000-0  87843-4 0  9991
2 23001  82.5709 272.1830 0006543 225.5863 252.0653 12.62916735427784
Epoch: 2025-02-04T03:14Z
Definitive object data (Epoch: 2025-02-04T03:14:07.045Z)
Latitude61.59892°
Longitude-104.77484°
Altitude1,423.001 km
Speed7.154 km/s
True Right ascension05h 13m 11s
True Declination61° 28' 02"
Sunlit
Object was in daylight at TLE epoch
Visualization TLE readout
Latitude82.56831°
Longitude-175.65425°
Altitude1,427.933 km
Speed7.152 km/s
Apparent Right ascension18h 38m 03s
Apparent Declination37° 03' 48"
Sunlit
Object is in daylight
Visualization observer readout
Local Sidereal Time05:50:22
Azimuth350.291° N
Elevation-12.246°
Doppler factor1
Orbital elements
Apogee altitude1,413.343 km
Perigee altitude1,403.154 km
Semi-major axis7,786.386 km
Eccentricity0.0006543
Inclination82.5709°
RAAN272.183°
Arg. of periapsis225.5863°
True anomaly251.99398°
Mean anomaly252.0653°
Eccentric anomaly252.02964°
Mean motion3.15892 °/min
BSTAR0.000087843
Orbital period113.96 mins
Loading maneuver chart data...
Loading historical data...
Loading historical data...
Loading historical data...
Loading historical data...
Loading historical data...
Loading historical data...
Loading historical data...

COSMOS 2270 Visibility forecast

Observer location: undefined°, undefined

Span
Click to sort rows by Start time (UTC) header in descending order
Start Az.
Max El. time (UTC)
Max El. Az.
Max El.
End time (UTC)
End Az.
15 mins2025-02-05 03:56:38.233Z345.795° N2025-02-05 04:04:38.233Z253.621° W42.022°2025-02-05 04:11:38.233Z189.703° SSW
10 mins2025-02-05 14:52:38.233Z122.425° SE2025-02-05 14:57:38.233Z77.153° E22.927°2025-02-05 15:02:38.233Z36.135° NE
15 mins2025-02-05 16:44:38.233Z201.692° SSW2025-02-05 16:51:38.233Z288.742° WNW42.083°2025-02-05 16:59:38.233Z2.035° NNE
15 mins2025-02-06 02:45:38.233Z3.97° NNE2025-02-06 02:52:38.233Z76.18° E38.471°2025-02-06 03:00:38.233Z152.32° SSE
|